Temperature
25 24 23 23 22 21 20 20 20 20 19 19 19 18 18 18 18 18 18 18 18 18 18 18 18 18 18 18 18 18 18 18 18 18 18 18 18 18 18 18 18 18 17
25 24 23 23 22 21 20 20 20 20 19 19 19 18 18 18 18 18 18 18 18 18 18 18 18 18 18 18 18 18 18 18 18 18 18 18 18 18 18 18 18 18 18
26 25 24 23 22 22 21 20 20 20 20 19 19 19 18 18 18 18 18 18 18 18 18 18 18 18 17 18 18 18 18 18 18 18 18 18 18 18 18 18 18 18 18
26 25 24 23 23 22 21 21 20 20 20 19 19 19 19 18 18 18 18 18 18 18 18 18 18 18 18 17 17 17 17 17 18 18 18 18 18 18 17 18 18 18 17
27 26 24 23 23 22 21 21 20 20 20 20 19 19 19 19 18 18 18 18 18 18 18 18 18 18 17 17 17 17 17 17 17 17 18 18 18 18 17 17 17 17 17
27 26 25 24 23 22 22 21 20 20 20 20 19 19 19 19 18 18 18 18 18 18 18 18 18 18 17 17 17 17 17 17 17 17 17 17 18 18 17 17 17 17 17
27 26 25 24 23 23 22 21 21 20 20 20 19 19 19 19 18 18 18 18 18 18 18 18 18 17 17 17 17 17 17 17 17 17 17 17 17 17 17 17 17 16 16
28 26 25 24 23 23 22 21 21 20 20 20 19 19 19 19 19 18 18 18 18 17 17 17 17 17 17 17 17 17 17 17 17 17 17 17 17 17 17 17 16 16 16
28 27 25 25 24 23 22 22 21 21 20 20 20 19 19 19 18 18 18 18 18 17 17 17 17 17 17 17 17 17 17 17 17 17 17 17 17 17 17 16 16 16 16
28 27 26 25 24 23 22 22 21 21 20 20 19 19 19 19 19 18 18 18 17 17 17 17 17 17 17 17 17 17 16 16 17 16 17 16 16 16 16 16 16 16 16
28 27 26 25 24 24 23 22 21 21 20 20 20 19 19 19 18 18 18 18 17 17 17 17 17 17 17 16 16 16 16 16 16 16 16 16 16 16 16 16 15 15 15
28 27 26 25 25 24 23 22 22 21 21 20 20 19 19 18 18 18 18 18 18 17 17 17 17 16 16 16 16 16 16 16 16 16 16 16 15 15 15 15 15 15 15
28 27 26 25 24 24 23 22 22 21 20 20 20 19 19 18 18 18 18 17 17 17 17 17 16 16 16 16 16 16 16 16 16 15 15 15 15 15 15 15 15 15 15
27 26 25 24 24 23 23 22 22 21 21 20 20 19 19 18 18 18 18 17 17 17 17 17 16 16 16 16 15 15 15 15 15 15 15 15 15 15 15 15 14 14 14
26 25 24 24 23 23 22 22 22 21 21 20 20 19 19 18 18 18 17 17 17 16 16 16 16 16 16 15 15 15 15 15 15 15 15 14 14 14 14 14 14 14 14
25 25 24 23 23 22 22 22 21 21 20 20 19 19 18 18 18 17 17 17 17 16 16 16 16 16 16 15 15 15 14 14 14 14 14 14 14 14 14 13 13 13 13
25 24 23 22 22 22 22 21 21 20 20 19 19 19 18 18 17 17 17 17 16 16 16 16 16 15 15 15 15 14 14 14 14 13 13 13 13 13 13 13 13 12 12
25 24 23 22 22 21 21 21 20 20 19 19 19 18 18 17 17 17 17 16 16 16 15 15 15 15 15 15 14 14 14 13 13 13 13 13 13 12 12 12 12 12 12
24 23 23 22 21 21 20 20 20 19 19 19 18 18 18 17 17 17 16 16 15 15 15 15 15 15 15 14 14 14 13 13 13 13 12 12 12 12 12 12 12 11 11
23 23 22 22 21 20 20 20 19 19 19 18 18 18 17 17 17 17 16 16 15 15 15 14 14 14 14 14 13 13 13 13 12 12 12 12 12 12 11 11 11 11 11
22 22 21 21 20 20 20 19 19 18 18 18 18 17 17 17 16 16 16 15 15 14 14 14 14 14 14 13 13 13 13 12 12 12 11 11 11 11 11 11 11 11 11
21 21 21 20 20 19 19 19 18 18 18 18 17 17 17 16 16 15 15 15 14 14 14 14 13 13 13 13 13 12 12 12 12 11 11 11 11 11 11 11 10 10 10
20 20 20 19 19 18 19 18 18 18 17 17 17 16 16 16 15 15 15 14 14 14 13 13 13 12 12 12 12 12 12 11 11 11 11 10 10 10 10 10 10 10 10
20 19 19 18 18 18 18 18 17 17 17 17 16 16 15 15 15 14 14 14 14 13 13 13 12 12 12 12 12 11 11 11 11 10 10 10 10 10 10 10 10 10 10
19 18 18 18 17 17 17 17 17 16 16 16 15 15 15 15 14 14 14 14 13 13 13 13 12 12 12 12 11 11 11 11 10 10 10 10 10 10 10 10 10 9 9
18 18 18 17 17 17 17 16 16 16 15 15 15 14 14 14 14 14 13 13 13 13 13 12 12 12 12 11 11 11 10 10 10 10 10 10 10 10 10 10 10 9 9
Wind_Speed
11 11 10 10 9 7 6 5 4 4 3 2 2 2 2 3 2 3 4 4 4 2 1 2 1 2 1 2 2 2 3 3 3 1 1 2 2 3 3 3 3 4 7
12 11 10 10 9 8 7 6 5 5 4 3 2 2 2 2 2 1 2 3 3 3 3 2 2 2 2 2 2 2 2 3 2 2 1 1 1 1 3 2 3 2 3
14 13 11 9 9 9 7 6 5 5 4 3 2 1 2 0 0 1 1 2 3 3 2 2 2 2 2 2 3 2 3 3 3 2 2 1 1 1 1 2 2 2 2
14 13 12 10 9 8 8 7 6 4 4 3 2 2 2 1 1 1 1 1 2 2 3 2 3 3 2 2 3 3 3 3 3 3 2 2 2 2 1 1 1 1 1
14 13 12 10 9 9 9 8 7 5 4 3 2 1 0 1 0 1 1 1 1 2 2 2 2 2 3 3 3 2 2 2 3 2 2 2 2 3 3 2 1 0 0
14 13 12 11 9 9 9 9 7 5 5 4 3 1 0 1 1 1 0 1 0 1 1 1 1 2 2 2 3 2 2 3 3 3 2 2 2 2 2 2 2 1 1
14 14 13 12 10 9 9 9 8 6 5 4 3 2 1 0 1 1 1 1 1 1 1 0 0 1 1 2 2 1 2 3 3 3 3 2 3 2 1 1 1 1 1
14 14 13 12 11 10 9 9 9 7 6 5 3 2 2 1 0 0 1 1 2 1 1 1 1 1 1 1 1 1 2 1 2 3 3 3 2 2 1 1 2 1 1
14 14 14 13 12 10 9 9 9 7 6 5 4 3 2 1 1 2 1 1 2 1 2 2 1 2 2 2 1 1 2 1 1 2 2 2 2 1 1 1 2 2 2
13 13 13 13 12 11 10 9 9 8 6 5 4 4 3 2 1 1 1 2 2 3 3 3 2 2 2 2 1 1 2 1 1 1 2 3 2 2 1 1 1 1 1
12 12 11 12 12 12 12 10 9 8 7 6 5 3 3 3 2 1 1 2 2 2 2 2 3 3 3 3 3 2 2 3 3 2 2 2 3 2 2 1 1 0 1
12 11 12 11 11 11 11 10 10 9 8 6 6 5 3 2 2 2 2 2 2 2 2 2 3 3 3 3 3 3 4 4 3 3 3 3 3 3 3 2 2 1 1
12 11 11 11 10 9 9 9 8 9 8 8 7 6 4 3 3 2 3 3 2 3 3 3 3 3 4 3 4 4 4 4 5 5 5 4 4 4 3 3 2 1 1
11 11 10 9 8 8 7 7 7 7 8 7 7 6 5 4 4 3 3 3 3 3 3 3 4 4 4 4 4 4 4 5 5 5 6 6 6 5 5 4 4 3 2
11 10 9 8 8 8 8 7 7 6 6 6 6 6 6 5 4 4 4 3 3 4 4 4 4 4 5 5 5 5 5 5 5 6 6 8 9 10 7 6 5 4 3
11 10 9 9 8 7 7 8 7 7 6 6 6 6 6 5 5 4 4 4 4 5 5 5 5 6 6 8 9 6 5 5 5 5 5 6 8 9 10 11 10 7 5
10 10 10 9 8 7 7 7 8 7 7 6 6 6 6 5 5 5 5 5 5 5 5 6 6 7 8 10 10 9 5 5 6 5 5 5 7 6 5 7 8 8 9
9 9 9 9 9 8 7 7 7 8 7 6 6 6 6 6 5 5 5 5 5 5 5 5 6 6 7 9 9 8 4 5 5 5 5 6 6 7 6 5 6 7 6
7 7 9 9 9 8 8 7 7 7 7 7 6 6 5 6 6 6 5 5 5 5 5 5 5 5 6 8 8 6 3 4 5 6 6 6 6 8 8 5 5 5 4
6 7 8 9 9 8 8 7 7 7 6 6 6 6 5 6 6 6 5 5 5 5 5 4 4 5 6 7 8 7 2 3 4 5 6 9 8 8 8 4 4 3 2
7 7 8 8 7 7 8 7 6 6 6 6 6 7 6 6 6 6 5 5 5 5 5 5 5 5 6 6 8 8 3 3 3 3 4 5 7 7 7 5 3 2 1
8 8 8 7 7 7 7 7 6 6 6 6 7 6 6 6 6 6 5 5 5 5 5 4 4 4 4 5 6 7 6 5 4 3 3 4 4 5 5 4 4 5 3
7 7 8 8 7 6 6 6 5 6 6 7 6 6 5 4 5 6 5 4 4 4 4 4 3 4 4 4 5 5 6 6 4 3 4 3 1 1 1 2 3 3 2
6 7 8 8 7 6 6 6 5 5 6 6 5 5 5 5 5 3 3 3 2 2 3 3 3 4 3 3 2 2 2 3 2 2 3 2 1 1 1 1 1 1 1
6 6 6 7 7 6 6 5 6 6 6 6 5 5 4 5 5 4 3 2 3 2 2 2 2 3 3 2 2 1 1 0 1 1 2 2 2 1 1 1 1 1 1
5 5 6 6 6 6 6 5 6 6 6 5 5 4 4 5 5 6 5 9 7 8 8 7 5 4 6 6 5 4 4 3 2 1 1 2 2 1 1 1 1 1 1
Wind_Direction
156 150 152 152 151 147 151 156 158 152 164 176 188 194 201 215 218 210 190 200 220 232 245 285 255 268 264 252 249 233 238 241 228 247 282 272 241 203 189 198 195 191 189
154 155 156 160 159 155 161 159 162 165 181 177 189 196 196 206 198 215 163 199 208 216 229 226 250 254 259 257 264 248 247 264 240 217 219 270 288 268 229 189 195 206 166
159 159 164 166 163 158 159 156 156 154 168 169 184 193 163 236 170 185 190 214 210 207 241 240 254 265 252 244 253 247 238 245 264 247 198 197 222 299 281 215 209 180 170
159 160 162 164 159 155 151 140 144 144 154 169 196 206 183 191 207 195 167 206 216 216 229 234 242 257 262 251 255 228 240 239 251 259 234 222 188 177 267 294 246 197 182
154 155 156 155 155 157 151 146 142 145 149 158 167 198 236 198 193 124 131 223 220 219 226 229 240 247 256 259 266 278 261 253 254 263 249 237 231 201 205 230 242 247 93
147 147 148 145 152 154 150 145 141 141 147 156 158 159 238 13 25 28 61 260 220 234 226 225 229 243 251 267 264 262 259 259 263 275 276 260 247 229 221 219 208 211 262
145 146 148 150 156 155 149 142 141 144 148 150 154 157 168 159 12 328 307 326 13 42 13 350 281 282 269 269 269 265 261 264 261 268 276 275 270 269 236 201 202 216 262
147 148 150 154 158 156 151 143 142 145 150 153 154 143 139 188 215 264 345 15 15 46 16 22 12 332 309 302 297 299 274 274 273 271 277 278 283 286 266 209 195 216 251
149 152 156 159 158 156 150 144 141 144 148 151 147 138 134 122 48 80 40 33 18 19 41 35 25 6 357 347 15 357 339 355 322 313 315 300 300 301 296 252 215 200 221
151 154 157 157 154 153 145 142 141 145 148 152 158 153 147 146 128 74 59 44 41 32 40 27 28 27 18 13 16 24 4 12 2 348 345 331 326 324 318 264 257 234 215
150 150 150 147 149 151 152 151 149 150 152 151 143 137 142 152 145 118 87 68 56 50 32 21 23 34 35 26 30 34 27 30 23 10 7 348 343 339 334 339 350 39 120
145 148 147 145 150 154 154 154 156 157 158 152 144 144 142 136 128 112 87 81 82 74 56 49 38 37 49 48 49 42 41 37 30 20 15 2 1 8 9 7 19 38 128
142 142 143 146 151 148 145 151 158 158 158 155 151 150 148 137 121 103 91 85 84 79 68 64 59 46 50 54 60 58 48 44 39 34 28 20 19 14 11 22 21 25 91
136 136 138 141 142 139 141 149 152 151 152 150 150 149 146 140 130 119 108 95 88 80 72 66 65 61 57 48 55 69 65 60 55 49 43 37 38 30 22 34 29 49 77
141 139 143 142 141 143 148 148 143 138 136 141 147 148 142 135 125 116 109 98 88 83 76 70 67 62 62 46 49 62 67 62 60 57 59 60 65 60 53 57 44 47 70
154 153 150 147 148 150 155 148 144 137 135 141 139 133 131 130 126 118 108 97 87 81 82 77 73 66 60 46 46 52 64 62 62 64 66 75 70 71 71 70 61 57 65
160 156 156 155 153 155 152 148 145 140 139 135 128 130 131 130 129 125 117 108 99 92 87 83 83 76 56 45 41 44 55 63 56 52 46 54 58 53 64 74 71 62 57
158 157 160 155 150 148 143 140 144 143 142 136 132 131 134 131 123 114 112 107 104 101 92 87 86 85 64 45 41 41 65 72 66 59 53 58 50 40 40 64 71 66 55
147 153 155 152 146 145 141 142 141 141 141 141 139 136 136 133 131 126 120 115 112 105 99 93 90 86 68 43 39 31 77 84 74 69 59 56 53 35 37 65 77 79 82
129 136 142 141 138 140 139 142 140 139 143 142 136 131 129 132 134 129 123 118 117 115 108 100 97 94 81 52 41 30 66 95 93 87 74 62 55 44 36 54 72 65 46
116 118 120 124 127 131 134 138 137 137 136 134 130 126 124 126 127 124 125 127 126 122 116 110 102 94 88 74 51 41 42 53 78 92 84 64 48 43 33 30 45 33 345
121 122 117 117 122 129 135 136 132 127 126 126 130 129 131 136 135 131 132 139 141 138 133 131 124 107 96 81 67 55 47 39 63 75 86 85 61 45 29 24 11 359 348
122 124 125 123 122 124 129 133 124 124 129 130 132 132 132 127 133 144 151 158 162 162 154 151 140 125 118 102 86 75 61 57 65 78 96 112 112 51 24 19 360 354 6
114 120 125 125 124 124 121 118 122 127 134 138 140 138 138 134 126 130 142 153 158 164 154 148 147 137 129 118 115 133 123 110 112 123 135 161 201 282 354 -0 354 9 21
108 117 125 130 133 131 126 127 132 138 143 145 147 146 149 147 132 112 72 94 77 90 130 130 129 136 139 130 136 140 117 94 69 136 173 174 170 179 172 150 132 68 54
112 123 130 133 137 137 132 134 141 145 151 156 162 167 167 158 150 138 106 58 71 80 79 79 93 100 114 124 102 78 59 49 53 39 209 179 170 165 146 138 137 114 74
Height
1542 1545 1548 1550 1551 1552 1553 1554 1554 1555 1556 1556 1557 1557 1558 1559 1559 1560 1560 1561 1561 1561 1562 1562 1563 1563 1564 1564 1565 1566 1566 1567 1568 1568 1569 1569 1570 1570 1571 1572 1572 1573 1573
1539 1543 1546 1548 1550 1550 1552 1553 1553 1554 1555 1555 1556 1557 1557 1558 1558 1559 1559 1559 1559 1560 1560 1561 1561 1562 1562 1562 1563 1564 1564 1565 1566 1567 1567 1567 1568 1568 1569 1569 1570 1571 1571
1536 1540 1544 1547 1549 1550 1551 1552 1553 1553 1554 1555 1555 1556 1557 1557 1557 1558 1558 1558 1558 1558 1559 1559 1560 1560 1560 1561 1561 1562 1562 1563 1564 1565 1566 1566 1566 1566 1567 1567 1568 1569 1569
1534 1538 1542 1545 1547 1549 1550 1551 1552 1553 1553 1554 1554 1555 1556 1556 1557 1557 1557 1557 1557 1557 1557 1557 1558 1558 1558 1559 1559 1560 1560 1561 1561 1562 1563 1564 1564 1565 1565 1566 1566 1567 1567
1531 1536 1540 1543 1546 1548 1549 1550 1551 1552 1552 1553 1554 1554 1555 1556 1556 1556 1556 1556 1556 1556 1556 1556 1556 1556 1556 1557 1557 1558 1558 1559 1560 1560 1561 1561 1562 1562 1563 1563 1564 1565 1565
1530 1535 1539 1542 1545 1548 1549 1550 1550 1551 1552 1553 1553 1554 1554 1555 1555 1555 1555 1555 1555 1555 1555 1555 1554 1554 1555 1555 1555 1556 1556 1557 1557 1558 1559 1559 1560 1560 1561 1561 1562 1562 1563
1528 1533 1538 1541 1544 1547 1548 1549 1550 1550 1551 1552 1553 1553 1554 1554 1554 1554 1555 1555 1554 1554 1554 1553 1553 1553 1553 1553 1554 1554 1554 1555 1555 1556 1556 1557 1557 1558 1559 1559 1559 1560 1561
1528 1532 1536 1540 1543 1545 1547 1548 1549 1550 1551 1552 1552 1553 1553 1554 1554 1554 1554 1554 1553 1553 1553 1552 1552 1552 1552 1552 1552 1552 1553 1553 1553 1554 1554 1555 1555 1555 1556 1557 1557 1558 1558
1527 1531 1535 1539 1542 1544 1546 1548 1548 1550 1551 1551 1552 1552 1553 1553 1553 1553 1553 1553 1553 1553 1552 1551 1551 1551 1551 1551 1551 1551 1551 1552 1552 1552 1552 1552 1553 1553 1553 1554 1555 1556 1556
1526 1530 1534 1537 1541 1543 1546 1547 1548 1549 1550 1551 1552 1552 1552 1552 1553 1552 1552 1552 1552 1552 1551 1551 1550 1550 1550 1550 1550 1550 1550 1550 1550 1551 1551 1550 1551 1551 1551 1551 1552 1553 1554
1524 1529 1533 1536 1540 1542 1545 1546 1547 1549 1550 1550 1551 1552 1552 1552 1552 1552 1552 1551 1551 1551 1551 1550 1550 1550 1550 1549 1549 1549 1549 1549 1549 1549 1549 1549 1549 1549 1549 1549 1550 1550 1551
1524 1528 1532 1536 1539 1542 1544 1545 1547 1548 1549 1550 1550 1551 1552 1552 1552 1551 1551 1551 1551 1550 1550 1550 1549 1549 1549 1549 1548 1548 1548 1548 1548 1548 1548 1548 1548 1548 1548 1548 1548 1548 1549
1523 1527 1531 1535 1538 1541 1543 1545 1546 1548 1549 1549 1550 1550 1551 1551 1551 1551 1551 1551 1550 1550 1550 1549 1549 1549 1549 1548 1548 1548 1548 1548 1548 1548 1547 1547 1547 1546 1546 1546 1546 1547 1547
1524 1527 1531 1534 1537 1539 1541 1544 1545 1547 1548 1549 1549 1550 1550 1550 1550 1550 1550 1550 1550 1550 1550 1549 1549 1549 1549 1548 1548 1548 1548 1547 1547 1547 1547 1546 1546 1545 1545 1545 1545 1545 1545
1523 1527 1531 1534 1536 1538 1540 1542 1544 1546 1547 1548 1548 1549 1549 1550 1550 1550 1550 1550 1550 1550 1550 1549 1549 1549 1549 1549 1549 1548 1548 1548 1547 1547 1547 1546 1546 1545 1545 1544 1544 1544 1544
1522 1527 1530 1532 1535 1537 1539 1541 1543 1544 1545 1546 1547 1548 1549 1549 1550 1550 1550 1550 1550 1550 1550 1550 1549 1549 1549 1549 1549 1549 1548 1548 1548 1547 1547 1547 1546 1545 1545 1545 1544 1544 1544
1521 1525 1528 1531 1534 1536 1538 1540 1541 1543 1544 1545 1546 1547 1548 1548 1549 1550 1549 1550 1550 1550 1550 1549 1549 1549 1549 1549 1549 1549 1549 1548 1548 1547 1547 1547 1546 1546 1545 1545 1545 1545 1545
1520 1524 1527 1530 1533 1535 1537 1539 1541 1542 1543 1544 1546 1547 1547 1548 1549 1549 1549 1549 1549 1550 1550 1550 1550 1550 1550 1550 1550 1550 1549 1549 1548 1548 1547 1547 1546 1546 1546 1546 1545 1545 1546
1519 1522 1526 1528 1531 1533 1535 1537 1539 1541 1542 1543 1545 1546 1547 1548 1548 1549 1549 1549 1549 1550 1550 1550 1550 1550 1550 1550 1550 1550 1549 1549 1549 1548 1547 1547 1547 1547 1546 1546 1546 1546 1547
1518 1522 1524 1527 1529 1531 1534 1536 1538 1539 1541 1542 1543 1545 1546 1546 1547 1548 1548 1549 1549 1549 1549 1549 1549 1549 1549 1550 1550 1550 1549 1549 1549 1548 1548 1547 1547 1547 1547 1546 1546 1547 1547
1518 1521 1523 1525 1528 1530 1532 1534 1536 1538 1540 1541 1542 1543 1544 1546 1547 1547 1547 1548 1549 1549 1549 1549 1549 1549 1549 1549 1549 1549 1549 1549 1549 1548 1548 1548 1548 1547 1547 1547 1547 1547 1548
1519 1520 1522 1524 1527 1529 1532 1533 1535 1537 1538 1540 1541 1542 1543 1544 1545 1546 1547 1547 1548 1548 1549 1549 1549 1549 1549 1549 1549 1549 1549 1549 1549 1548 1548 1548 1549 1548 1548 1548 1548 1548 1548
1519 1520 1522 1524 1527 1529 1531 1532 1534 1535 1537 1538 1540 1541 1542 1543 1544 1545 1546 1547 1547 1548 1548 1548 1548 1548 1548 1548 1549 1549 1549 1549 1549 1549 1549 1549 1549 1549 1549 1549 1549 1549 1549
1519 1521 1522 1524 1526 1528 1530 1532 1533 1534 1536 1537 1538 1539 1541 1542 1543 1544 1545 1546 1546 1547 1547 1547 1548 1548 1548 1548 1548 1548 1549 1549 1549 1550 1550 1550 1550 1550 1550 1550 1550 1550 1550
1520 1521 1522 1524 1526 1528 1529 1530 1531 1533 1534 1535 1537 1538 1539 1541 1541 1542 1543 1544 1545 1545 1546 1546 1546 1546 1547 1547 1547 1548 1548 1548 1549 1549 1550 1550 1550 1550 1550 1551 1551 1550 1550
1519 1521 1522 1524 1525 1526 1527 1528 1530 1531 1533 1534 1535 1537 1538 1539 1540 1540 1541 1542 1543 1544 1544 1545 1545 1545 1546 1546 1547 1548 1548 1548 1549 1549 1549 1550 1550 1551 1551 1551 1551 1551 1551